Location: Großkuchen
(48.7515°N, 10.2306°E)
Time: 19:13:05
(UTC+00:00)

Daily predictions for brighter satellites

Satellite Brightness Start Highest point End
(mag) Time Altitude Azimuth Time Altitude Azimuth Time Altitude Azimuth
SL-08 R/B 4.4 16:04:09 10° S 16:10:11 72° E 16:16:16 10° NNE
Cosmos 1975 Rocket 3.3 16:06:09 10° N 16:10:22 48° ENE 16:14:36 10° SSE
USA 215 3.3 16:04:04 10° ESE 16:10:36 79° NNE 16:17:10 10° NW
ARIANE 5 R/B 2.8 16:06:23 10° SE 16:11:04 43° ENE 16:15:47 10° N
ATLAS 5 CENTAUR R/B 2.3 16:08:49 10° NW 16:13:08 64° SW 16:18:30 10° SSE
Cosmos 1844 Rocket 4.5 16:12:45 10° W 16:17:19 25° NW 16:21:56 10° N
Cosmos 1802 Rocket 4.3 16:11:35 10° SSW 16:18:01 77° W 16:24:28 10° N
Cosmos 2344 4.3 16:11:08 10° NW 16:18:03 38° NNE 16:26:33 10° E
Iridium 4 Rocket 3.9 16:14:40 10° SSW 16:19:37 62° W 16:24:11 10° N
SAR-Lupe-4 3.8 16:16:40 10° SE 16:20:05 45° ENE 16:23:32 10° N
ISS -3.3 16:24:52 10° SW 16:28:07 52° SSE 16:30:57 13° ENE
CZ-2D R/B 3.0 16:26:20 10° SE 16:29:21 43° ENE 16:32:23 10° N
COSMOS 2406 4.1 16:25:26 10° NNW 16:30:19 28° NE 16:35:11 10° ESE
Cosmos 1833 Rocket 3.7 16:24:50 10° NW 16:30:20 53° WSW 16:35:46 10° S
Cosmos 407 Rocket 3.7 16:25:40 10° S 16:30:39 51° ESE 16:35:38 10° NNE
Cosmos 1484 Rocket 3.9 16:28:13 10° S 16:31:34 43° W 16:34:58 10° NNW
Cosmos 2016 Rocket 4.4 16:25:39 10° SSW 16:31:56 72° W 16:38:20 10° N
Cosmos 1812 3.2 16:30:14 10° SE 16:32:34 22° E 16:34:34 12° NE
IRS-P3 4.3 16:29:23 10° SE 16:34:31 51° ENE 16:39:40 10° N
TIMED 4.4 16:30:35 10° SSW 16:34:50 86° ESE 16:39:08 10° NNE
Tsikada Rocket 4.3 16:29:08 10° NNW 16:35:34 80° W 16:41:54 10° S
Cosmos 2084 Rocket 4.4 16:36:00 10° WSW 16:39:58 42° NW 16:44:00 10° NNE
SMAP 3.1 16:37:00 10° SSE 16:41:40 89° WSW 16:46:22 10° NNW
Cosmos 44 Rocket 3.6 16:39:03 10° SSW 16:43:36 47° ESE 16:47:38 14° NE
Cosmos 540 Rocket 3.4 16:39:46 10° NNW 16:44:56 78° ENE 16:50:02 10° SSE
SJ 16-02 2.4 16:42:23 10° SSE 16:45:49 23° E 16:47:54 17° ENE
SPOT 1/Viking Rocket 4.0 16:41:41 10° SE 16:46:27 39° ENE 16:51:14 10° N
Cosmos 1869 2.9 16:44:03 10° S 16:47:31 64° E 16:51:00 10° NNE
YAOGAN 1 3.5 16:44:48 10° ESE 16:48:19 26° ENE 16:51:52 10° N
SL-16 R/B 3.3 16:46:30 10° N 16:52:37 56° WNW 16:58:40 10° SW
Cosmos 1763 Rocket 3.6 16:48:08 10° NNW 16:53:22 79° WSW 16:58:29 10° SSE
Landsat 7 3.7 16:49:10 10° SSE 16:53:49 88° E 16:58:31 10° NNW
Spot 4 Rocket 4.4 16:52:40 10° SE 16:57:23 40° ENE 17:02:09 10° N
Nadezhda 4 Rocket 4.2 16:52:37 10° N 16:58:41 48° ENE 17:04:39 10° SSE
RESURS DK-1 2.7 16:55:08 10° NW 16:59:07 65° WSW 17:03:04 10° SSE
Timation 1 Rocket 4.5 16:53:09 10° NNW 16:59:08 81° WSW 17:05:05 10° SSE
Cosmos 1140 Rocket 4.2 16:54:44 10° SW 16:59:46 52° WNW 17:04:49 10° NNE
Aureole 3 Rocket 2.2 16:57:35 10° S 17:00:32 55° E 17:03:44 10° NNE
CZ-4C R/B 3.8 16:58:06 10° WNW 17:02:10 24° NNW 17:06:53 11° NE
Resurs 1-3 4.2 16:58:45 10° SE 17:02:35 33° ENE 17:06:27 10° N
CZ-4 R/B 4.4 17:01:50 10° SSE 17:05:42 55° ENE 17:09:35 10° N
UNK 4.3 17:01:09 10° N 17:05:43 61° WNW 17:10:15 10° SSW
SJ-6F 4.2 17:01:51 10° SSE 17:05:45 86° ENE 17:09:42 10° NNW
Cosmos 304 Rocket 4.4 17:04:30 10° SSE 17:08:43 33° ESE 17:10:28 25° ENE
Cosmos 1400 Rocket 3.2 17:06:28 10° SSE 17:09:59 36° E 17:11:07 29° ENE
SJ-12 4.3 17:06:30 10° S 17:10:15 59° W 17:14:01 10° NNW
Cosmos 371 Rocket 3.9 17:06:05 10° SSE 17:10:21 33° ESE 17:12:04 26° ENE
Cosmos 1536 Rocket 3.6 17:07:55 10° N 17:12:18 56° ENE 17:16:37 10° SSE
SAR-Lupe-3 4.3 17:13:47 17° N 17:15:37 58° WNW 17:18:11 10° SSW
Helios 1A Rocket 3.6 17:16:47 27° SE 17:16:47 27° SE 17:18:57 10° SSE
Okean 2 Rocket 3.3 17:13:09 10° SSE 17:17:19 44° E 17:20:03 19° NNE
Cosmos 489 Rocket 4.4 17:12:58 10° NNW 17:19:13 67° ENE 17:25:23 10° SSE
NOAA 6 4.2 17:20:40 10° SE 17:25:34 46° ENE 17:30:28 10° N
SL-12 R/B(2) 4.4 17:18:53 10° SW 17:26:57 84° NW 17:35:47 14° NE
Geosat 4.4 17:25:22 31° E 17:27:04 42° NE 17:31:45 10° NNW
COSMO-SKYMED 1 2.6 17:26:49 38° ENE 17:27:50 46° E 17:31:48 10° S
Resurs 01 Rocket 3.3 17:30:11 19° NNE 17:30:11 19° NNE 17:31:49 10° N
Cosmos 1943 Rocket 2.4 17:24:42 10° SW 17:30:18 68° WNW 17:35:17 13° NNE
Timation 2 Rocket 4.4 17:24:51 10° SW 17:31:43 70° WNW 17:38:23 11° NNE
Cosmos 841 Rocket 3.4 17:28:55 10° NNW 17:34:10 67° ENE 17:38:54 13° SSE
Cosmos 2251 Rocket 3.5 17:28:53 10° SSW 17:34:10 87° WNW 17:38:36 15° NNE
Cosmos 2058 3.3 17:30:17 10° NNW 17:34:13 61° W 17:38:08 10° S
SJ-7 3.9 17:32:07 10° SSE 17:35:47 78° ENE 17:39:29 10° N
BREEZE-M DEB (TANK) 2.5 17:35:21 10° WSW 17:38:06 87° SSE 17:39:49 40° E
Cosmos 2082 Rocket 2.5 17:33:46 10° NNW 17:39:20 65° WSW 17:44:53 10° SSE
ATLAS 2AS CENTAUR R/B 3.1 17:33:50 10° NW 17:40:17 43° NE 17:42:14 35° ENE
Cosmos 1346 Rocket 4.4 17:37:16 10° N 17:38:39 21° N 17:38:39 21° N
IRAS Rocket 4.2 17:37:15 10° SSE 17:42:48 89° WSW 17:48:22 10° NNW
Cosmos 2278 Rocket 2.7 17:38:16 10° SW 17:43:50 58° WNW 17:48:32 15° NNE
MOS 1 Rocket 4.1 17:40:58 10° S 17:45:09 48° W 17:49:33 10° NNW
Cosmos 1464 Rocket 4.0 17:43:39 10° SSW 17:49:58 81° W 17:56:13 10° N
Cosmos 1634 Rocket 4.3 17:44:42 10° SSE 17:57:50 - NNE 17:50:01 41° E
CZ-2D R/B 4.0 17:46:47 10° S 17:50:52 59° WSW 17:55:02 10° NNW
Meteor 2-1 Rocket 4.3 17:45:49 10° S 17:51:38 63° E 17:57:32 10° NNE
Cosmos 2369 Rocket 3.9 17:48:32 10° SSE 17:50:08 17° SSE 17:50:08 17° SSE
USA 215 4.4 17:47:55 10° SSE 17:53:58 40° SW 18:00:05 10° WNW
Cosmos 1862 4.2 17:53:08 10° NNW 17:56:36 43° W 18:00:03 10° SSW
PSLV R/B 3.6 17:52:37 10° S 17:56:39 71° WSW 18:00:41 10° NNW
Cosmos 2151 Rocket 4.3 17:56:12 10° SSW 18:00:36 55° WNW 18:05:03 10° N
Cosmos 1190 Rocket 4.4 17:56:48 10° SW 18:02:02 62° WNW 18:05:26 22° NNE
Cosmos 2034 Rocket 3.9 17:57:40 10° S 18:03:52 88° E 18:10:12 10° N
ISS -2.3 18:01:37 10° W 18:03:52 36° WNW 18:03:52 36° WNW
Cosmos 676 Rocket 3.9 17:59:46 10° SSW 18:05:05 90° W 18:06:42 47° NNE
Okean 1 Rocket 3.2 18:02:51 10° SSW 18:07:14 71° W 18:08:25 47° N
SKYMED 2 4.4 18:03:51 15° N 18:07:18 50° WNW 18:11:29 10° SW
Cosmos 1656 Rocket 3.5 18:02:17 10° SSW 18:07:46 67° ESE 18:07:59 66° E
USA 281 3.2 18:11:29 53° ENE 18:12:00 55° NE 18:18:23 10° NNW
Sich 1 Rocket 4.0 18:08:30 10° SSW 18:13:00 62° WNW 18:14:56 33° N
Cosmos 1954 Rocket 4.4 18:09:17 10° SW 18:14:28 60° WNW 18:16:53 31° N
COSMOS 2406 3.6 18:09:23 10° NNW 18:15:01 63° WSW 18:19:01 19° S
Cosmos 1932 4.4 18:08:54 10° SSW 18:15:15 76° SE 18:16:22 61° ENE
Cosmos 1092 Rocket 3.8 18:10:29 10° N 18:16:47 86° E 18:22:58 10° S
BlueWalker 3 4.3 18:14:56 10° SSW 18:15:40 15° SSW 18:15:40 15° SSW
Cosmos 2026 Rocket 4.0 18:15:39 10° NNW 18:21:45 79° W 18:27:53 10° S
SJ 16-02 2.5 18:19:39 10° SW 18:23:43 40° WNW 18:24:29 37° NW
YAOGAN 1 4.0 18:20:05 10° SSW 18:24:02 36° W 18:28:00 10° NNW
Cosmos 2344 3.9 18:25:23 10° NW 18:33:21 84° SW 18:38:34 34° SSE
Cosmos 2297 Rocket 4.5 18:32:32 10° N 18:33:09 11° N 18:33:09 11° N
Meteor 2-3 Rocket 4.4 18:32:07 10° NNW 18:37:38 52° W 18:43:04 10° S
CZ-4C R/B 4.1 18:48:02 10° NW 18:51:49 22° N 18:51:49 22° N
Resurs 01 Rocket 4.3 19:07:36 15° NW 19:07:36 15° NW 19:08:25 10° NNW
Cosmos 1943 Rocket 4.5 19:11:29 10° WNW 19:15:06 17° NW 19:16:48 15° NNW
ATLAS 2AS CENTAUR R/B 3.5 19:24:50 10° NW 19:29:41 46° WNW 19:29:41 46° WNW
